Tracking 17145 objects as of 29-May-2015
HD Live streaming from Space Station

COSMOS 970 DEB

Track COSMOS 970 DEB now!
10-day predictions
COSMOS 970 DEB is classified as:


NORAD ID: 10563
Int'l Code: 1977-121E
Perigee: 874.3 km
Apogee: 1,029.2 km
Inclination: 65.8 °
Period: 103.9 minutes
Semi major axis: 7322 km
RCS: 0.0231 m2 (small)
Launch date: December 21, 1977
Source: Commonwealth of Independent States (former USSR) (CIS)

Note: This is SATELLITE DEBRIS
Your satellite tracking list
Your tracking list is empty





NASA's NSSDC Master Catalog

Two Line Element Set (TLE):
1 10563U 77121E   15148.19708889  .00000599  00000-0  57187-3 0  9996
2 10563 065.8492 107.3534 0105760 187.3892 172.5624 13.85452523877266

Source of the keplerian elements: AFSPC

N2YO: 366